sat.trackr.live / text

‹ back to catalog

STARLINK-5671

NORAD 55339 · 2023-013J

PAYLOAD ACTIVE UNKNOWN

§ Identity

Operator
Country
US
Launch date
2023-01-26
Launch site
AFETR
Launch vehicle
Mass (kg)
RCS (m²)

Purposes: comms

External: N2YO · Heavens-Above · Gunter

§ Orbital elements

Epoch: 2026-05-24T22:44:49.759296Z

Period
94.27 min
Inclination
43.0019°
Eccentricity
0.0001026
Mean motion
15.27576336 rev/d
Perigee alt
482.4 km
Apogee alt
483.8 km
Semi-major
6,861.2 km
B*
6.2029e-7
RAAN
236.3621°
Arg perigee
275.2798°
Mean anomaly
84.7936°
Rev number
18,329

§ Raw data

STARLINK-56711 55339U 23013J   26144.94779814 -.00000245  00000+0  62029-6 0  99962 55339  43.0019 236.3621 0001026 275.2798  84.7936 15.27576336183291

JSON: /api/v1/satellites/55339 · /tle

For live sub-satellite position, see the globe view (requires WebGL).

§ Visibility from observer

Set your observer location to see the next 7 days of passes ≥ 10°. The values pass through the URL so the page stays shareable.

No JS? Fill the form by hand. The geolocation button needs JavaScript.